Tracking 20369 objects as of 18-Feb-2020
HD Live streaming from Space Station
objects crossing your sky now

SBS 2

Track SBS 2 now!
SBS 2 is classified as:


NORAD ID: 12855
Int'l Code: 1981-096A
Perigee: 35,830.6 km
Apogee: 35,836.5 km
Inclination: 13.7 °
Period: 1,438.1 minutes
Semi major axis: 42204 km
RCS: 7.6855 m2 (large)
Launch date: September 24, 1981
Source: United States (US)
Launch site: AIR FORCE EASTERN TEST RANGE (AFETR)
aabbcc
Your satellite tracking list
Your tracking list is empty




NASA's NSSDC Master Catalog

Two Line Element Set (TLE):
1 12855U 81096A   20048.74924517 -.00000373 +00000-0 +00000-0 0  9992
2 12855 013.7396 340.1186 0000694 070.6064 120.8358 01.00129954095469
Source of the keplerian elements: AFSPC